MUOS-4

Last updated on Fri Dec 19 2025 00:02:51 GMT+0000 (Coordinated Universal Time)

1 40887U 15044A 25352.56877470 -.00000072 00000+0 00000+0 0 9990 2 40887 3.9941 40.8878 0053040 357.7469 328.6115 1.00272220 37746
UTC large
Height (km)
Speed (km/s)
/
Latitude / Longitude
Inclination (degrees)
Orbital Period (minutes)
Azimuth
Elevation
Range (km)
Doppler Factor

Next 0 passes for location: London (51.5072 / 0.1276)

Sorry there are no passes over London.